GW4474 Weather Reports


time (UTC)temp
C
wind
direction
speed
KPH
gust
KPH
rain 1hr
cm
rain 24hr
cm
rain mn
cm
humidity
%
barometer
mb
20260503022024 11 0.0 0.0 0.00 0.03 0.00 92 1012.4
20260503021020 11 0.0 0.0 0.00 0.03 0.00 92 1012.4
20260503020017 11 0.0 0.0 0.00 0.03 0.00 92 1012.5
20260503015114 11 0.0 0.0 0.00 0.03 0.00 92 1012.4
20260503014111 11 0.0 0.0 0.00 0.03 0.00 92 1012.5
20260503013107 11 0.0 0.0 0.00 0.03 0.00 92 1012.6
20260503012124 11 0.0 0.0 0.00 0.03 0.00 92 1012.7
20260503011101 11 0.0 0.0 0.00 0.03 0.00 92 1012.8
20260503010058 11 0.0 0.0 0.00 0.03 0.00 92 1012.8
20260503005055 11 0.0 0.0 0.00 0.03 0.00 91 1012.9
20260503004112 11 0.0 0.0 0.00 0.03 0.00 91 1012.9
20260503003048 11 0.0 0.0 0.00 0.03 0.00 91 1013.0
20260503002045 11 0.0 0.0 0.00 0.03 0.00 91 1013.0
20260503001102 11 0.0 0.0 0.00 0.03 0.00 92 1013.1
20260503000039 11 0.0 0.0 0.00 0.03 0.00 91 1013.0
20260502235035 11 0.0 0.0 0.00 0.03 0.00 91 1013.1
20260502234032 11 0.0 0.0 0.00 0.03 0.00 91 1013.0
20260502233029 11 0.0 0.0 0.00 0.03 0.00 90 1013.2
20260502232026 11 0.0 0.0 0.00 0.03 0.00 91 1013.2
20260502231023 11 0.0 0.0 0.00 0.03 0.00 89 1013.2
20260502230019 11 0.0 0.0 0.00 0.03 0.00 89 1013.2
20260502225016 11 0.0 0.0 0.00 0.03 0.03 89 1013.1
20260502224113 11 0.0 0.0 0.00 0.03 0.03 89 1013.2
20260502223110 11 0.0 0.0 0.00 0.03 0.03 89 1013.2
20260502222106 11 0.0 0.0 0.00 0.03 0.03 89 1013.3
20260502221104 11 0.0 0.0 0.00 0.03 0.03 89 1013.2
20260502220100 11 0.0 0.0 0.00 0.03 0.03 88 1013.2
20260502215057 11 0.0 0.0 0.00 0.03 0.03 87 1013.2
20260502214053 11 0.0 0.0 0.00 0.03 0.03 87 1013.2
20260502213050 11 0.0 0.0 0.03 0.03 0.03 86 1013.2
20260502212107 11 0.0 0.0 0.03 0.03 0.03 85 1013.2
20260502211044 11 0.0 0.0 0.03 0.03 0.03 85 1013.2
20260502210041 12 0.0 0.0 0.03 0.03 0.03 83 1013.1
20260502205038 12 0.0 0.0 0.03 0.03 0.03 83 1013.1
20260502204034 12 0.0 0.0 0.03 0.03 0.03 82 1013.1
20260502203051 12 0.0 0.0 0.00 0.00 0.00 81 1013.1
20260502202028 12 0.0 0.0 0.00 0.00 0.00 80 1013.1
20260502201025 12 0.0 0.0 0.00 0.00 0.00 79 1013.1
20260502200021 13 0.0 0.0 0.00 0.00 0.00 78 1013.1
20260502195019 13 0.0 0.0 0.00 0.00 0.00 77 1013.0
20260502194035 13 0.0 0.0 0.00 0.00 0.00 77 1013.0
20260502193112 13 0.0 0.0 0.00 0.00 0.00 76 1012.9
20260502192109 14 0.0 0.0 0.00 0.00 0.00 74 1012.9
20260502191105 14 0.0 0.0 0.00 0.00 0.00 73 1012.9
20260502185119 14 0.0 0.0 0.00 0.00 0.00 73 1012.8
20260502184056 15 0.0 0.0 0.00 0.00 0.00 73 1012.8
20260502183053 15 0.0 0.0 0.00 0.00 0.00 73 1012.8
20260502182049 15 0.0 0.0 0.00 0.00 0.00 72 1012.8
20260502181046 15 0.0 0.0 0.00 0.00 0.00 71 1012.8
20260502164018 16 0.0 0.0 0.00 0.00 0.00 67 1012.9
20260502163134 16 0.0 0.0 0.00 0.00 0.00 67 1013.0
20260502162112 16 0.0 0.0 0.00 0.00 0.00 67 1013.0
20260502161108 16 0.0 0.0 0.00 0.00 0.00 66 1013.2
20260502160105 16 0.0 0.0 0.00 0.00 0.00 64 1013.2
20260502152052 16 0.0 0.0 0.00 0.00 0.00 60 1013.6
20260502151048 16 0.0 0.0 0.00 0.00 0.00 60 1013.7
20260502130107 16 0.0 0.0 0.00 0.00 0.00 56 1014.8
20260502123057 16 0.0 0.0 0.00 0.00 0.00 57 1015.1
20260502122054 16 0.0 0.0 0.00 0.00 0.00 58 1015.2
20260502121111 17 0.0 0.0 0.00 0.00 0.00 56 1015.3
20260502115104 17 0.0 0.0 0.00 0.00 0.00 58 1015.4
20260502114123 16 0.0 0.0 0.00 0.00 0.00 60 1015.4
20260502113038 16 0.0 0.0 0.00 0.00 0.00 59 1015.3
20260502112035 16 0.0 0.0 0.00 0.00 0.00 59 1015.4
20260502111032 16 0.0 0.0 0.00 0.00 0.00 59 1015.4
20260502110028 17 0.0 0.0 0.00 0.00 0.00 56 1015.4
20260502105025 17 0.0 0.0 0.00 0.00 0.00 57 1015.4
20260502104042 17 0.0 0.0 0.00 0.00 0.00 58 1015.5
20260502103019 17 0.0 0.0 0.00 0.00 0.00 60 1015.5
20260502102016 16 0.0 0.0 0.00 0.00 0.00 59 1015.7
20260502101113 16 0.0 0.0 0.00 0.00 0.00 57 1015.8
20260502100150 17 0.0 0.0 0.00 0.00 0.00 53 1015.9
20260502091053 18 0.0 0.0 0.00 0.00 0.00 55 1016.2
20260502071115 13 0.0 0.0 0.00 0.00 0.00 78 1016.6
20260502070112 13 0.0 0.0 0.00 0.00 0.00 82 1016.5
20260502065149 12 0.0 0.0 0.00 0.00 0.00 84 1016.7
20260502064105 12 0.0 0.0 0.00 0.00 0.00 85 1016.6
20260502063102 11 0.0 0.0 0.00 0.00 0.00 86 1016.6
20260502062059 10 0.0 0.0 0.00 0.00 0.00 86 1016.7
20260502061055 10 0.0 0.0 0.00 0.00 0.00 85 1016.7
20260502060053 10 0.0 0.0 0.00 0.00 0.00 85 1016.6
20260502055049 9 0.0 0.0 0.00 0.00 0.00 85 1016.6
20260502054047 9 0.0 0.0 0.00 0.00 0.00 84 1016.6
20260502053043 9 0.0 0.0 0.00 0.00 0.00 83 1016.5
20260502052040 9 0.0 0.0 0.00 0.00 0.00 82 1016.6
20260502051037 10 0.0 0.0 0.00 0.00 0.00 81 1016.6
20260502050033 10 0.0 0.0 0.00 0.00 0.00 79 1016.8
20260502045050 10 0.0 0.0 0.00 0.00 0.00 78 1016.8
20260502044027 10 0.0 0.0 0.00 0.00 0.00 77 1016.8
20260502043024 11 0.0 0.0 0.00 0.00 0.00 76 1016.8
20260502042021 11 0.0 0.0 0.00 0.00 0.00 74 1016.8
20260502041018 11 0.0 0.0 0.00 0.00 0.00 73 1017.0
20260502040115 11 0.0 0.0 0.00 0.00 0.00 73 1017.1
20260502035111 12 0.0 0.0 0.00 0.00 0.00 71 1017.0
20260502034108 12 0.0 0.0 0.00 0.00 0.00 72 1017.0
20260502033105 12 0.0 0.0 0.00 0.00 0.00 72 1017.1
20260502032102 12 0.0 0.0 0.00 0.00 0.00 72 1017.2
20260502031059 12 0.0 0.0 0.00 0.00 0.00 72 1017.4
20260502030055 12 0.0 0.0 0.00 0.00 0.00 71 1017.3
20260502025052 12 0.0 0.0 0.00 0.00 0.00 71 1017.5
20260502024109 12 0.0 0.0 0.00 0.00 0.00 70 1017.5
20260502023046 12 0.0 0.0 0.00 0.00 0.00 70 1017.6